Time,TemperatureF,DewpointF,PressureIn,WindDirection,WindDirectionDegrees,WindSpeedMPH,WindSpeedGustMPH,Humidity,HourlyPrecipIn,Conditions,Clouds,dailyrainin,SoftwareType,DateUTC
2013-01-09 00:02:00,23.7,17.2,17.73,South,178,0.0,4.0,22,-99.99,,,-99.99,meteohub,2013-01-09 07:02:00,
2013-01-09 00:07:00,23.9,18.1,17.73,South,178,0.0,2.0,23,-99.99,,,-99.99,meteohub,2013-01-09 07:07:00,
2013-01-09 00:12:00,23.9,17.2,17.73,South,178,0.0,0.0,22,-99.99,,,-99.99,meteohub,2013-01-09 07:12:00,
2013-01-09 00:17:00,24.1,17.6,17.73,South,178,0.0,0.0,22,-99.99,,,-99.99,meteohub,2013-01-09 07:17:00,
2013-01-09 00:22:00,24.1,17.6,17.73,South,178,0.0,0.0,22,-99.99,,,-99.99,meteohub,2013-01-09 07:22:00,
2013-01-09 00:27:00,24.1,17.4,17.73,South,178,0.0,0.0,22,-99.99,,,-99.99,meteohub,2013-01-09 07:27:00,
2013-01-09 00:32:00,24.1,17.2,17.73,South,178,0.0,0.0,22,-99.99,,,-99.99,meteohub,2013-01-09 07:32:00,
2013-01-09 00:37:00,24.1,17.2,17.73,South,178,0.0,0.0,22,-99.99,,,-99.99,meteohub,2013-01-09 07:37:00,
2013-01-09 00:42:00,24.3,18.1,17.73,South,178,0.0,0.0,23,-99.99,,,-99.99,meteohub,2013-01-09 07:42:00,
2013-01-09 00:47:00,24.3,17.2,17.73,SSE,164,3.0,0.0,22,-99.99,,,-99.99,meteohub,2013-01-09 07:47:00,
2013-01-09 00:52:00,24.4,17.8,17.73,SSW,205,4.0,4.0,22,-99.99,,,-99.99,meteohub,2013-01-09 07:52:00,
2013-01-09 00:57:00,24.6,17.6,17.73,SSW,208,0.0,4.0,22,-99.99,,,-99.99,meteohub,2013-01-09 07:57:00,
2013-01-09 01:02:00,24.6,17.4,17.73,SSW,208,2.0,5.0,22,-99.99,,,-99.99,meteohub,2013-01-09 08:02:00,
2013-01-09 01:07:00,24.6,17.2,17.73,SSW,206,4.0,5.0,22,-99.99,,,-99.99,meteohub,2013-01-09 08:07:00,
2013-01-09 01:12:00,24.6,17.2,17.73,SSW,212,4.0,4.0,22,-99.99,,,-99.99,meteohub,2013-01-09 08:12:00,
2013-01-09 01:17:00,24.8,18.1,17.73,South,190,3.0,4.0,23,-99.99,,,-99.99,meteohub,2013-01-09 08:17:00,
2013-01-09 01:22:00,24.6,18.1,17.73,South,172,3.0,4.0,23,-99.99,,,-99.99,meteohub,2013-01-09 08:22:00,
2013-01-09 01:27:00,24.8,17.6,17.73,South,172,3.0,4.0,22,-99.99,,,-99.99,meteohub,2013-01-09 08:27:00,
2013-01-09 01:32:00,24.8,17.8,17.73,South,172,2.0,4.0,22,-99.99,,,-99.99,meteohub,2013-01-09 08:32:00,
2013-01-09 01:37:00,24.8,17.6,17.73,SSE,162,3.0,3.0,22,-99.99,,,-99.99,meteohub,2013-01-09 08:37:00,
2013-01-09 01:42:00,25.0,17.4,17.73,SSW,197,0.0,5.0,22,-99.99,,,-99.99,meteohub,2013-01-09 08:42:00,
2013-01-09 01:47:00,25.3,17.2,17.73,NNW,346,4.0,6.0,22,-99.99,,,-99.99,meteohub,2013-01-09 08:47:00,
2013-01-09 01:52:00,25.5,18.1,17.73,WSW,258,5.0,6.0,23,-99.99,,,-99.99,meteohub,2013-01-09 08:52:00,
2013-01-09 01:57:00,25.7,18.1,17.73,NW,311,5.0,8.0,23,-99.99,,,-99.99,meteohub,2013-01-09 08:57:00,
2013-01-09 02:02:00,25.7,17.6,17.73,WNW,290,5.0,8.0,22,-99.99,,,-99.99,meteohub,2013-01-09 09:02:00,
2013-01-09 02:07:00,25.9,17.8,17.73,WNW,298,6.0,6.0,22,-99.99,,,-99.99,meteohub,2013-01-09 09:07:00,
2013-01-09 02:12:00,25.9,17.6,17.73,SW,234,5.0,6.0,22,-99.99,,,-99.99,meteohub,2013-01-09 09:12:00,
2013-01-09 02:17:00,26.1,17.4,17.73,WNW,291,5.0,6.0,22,-99.99,,,-99.99,meteohub,2013-01-09 09:17:00,
2013-01-09 02:22:00,26.1,17.2,17.73,WNW,289,4.0,6.0,22,-99.99,,,-99.99,meteohub,2013-01-09 09:22:00,
2013-01-09 02:27:00,26.1,17.2,17.73,West,276,4.0,6.0,22,-99.99,,,-99.99,meteohub,2013-01-09 09:27:00,
2013-01-09 02:32:00,26.1,18.1,17.73,WNW,297,3.0,6.0,23,-99.99,,,-99.99,meteohub,2013-01-09 09:32:00,
2013-01-09 02:37:00,26.1,17.2,17.73,WNW,294,4.0,6.0,22,-99.99,,,-99.99,meteohub,2013-01-09 09:37:00,
2013-01-09 02:42:00,26.1,17.8,17.73,West,261,4.0,6.0,22,-99.99,,,-99.99,meteohub,2013-01-09 09:42:00,
2013-01-09 02:47:00,26.1,17.6,17.73,WNW,297,0.0,4.0,22,-99.99,,,-99.99,meteohub,2013-01-09 09:47:00,
2013-01-09 02:52:00,26.2,17.4,17.73,West,275,4.0,4.0,22,-99.99,,,-99.99,meteohub,2013-01-09 09:52:00,
2013-01-09 02:57:00,26.4,17.2,17.73,West,273,4.0,5.0,22,-99.99,,,-99.99,meteohub,2013-01-09 09:57:00,
2013-01-09 03:02:00,26.4,17.2,17.73,WNW,285,4.0,5.0,22,-99.99,,,-99.99,meteohub,2013-01-09 10:02:00,
2013-01-09 03:07:00,26.4,18.1,17.73,WNW,288,3.0,5.0,23,-99.99,,,-99.99,meteohub,2013-01-09 10:07:00,
2013-01-09 03:12:00,26.4,18.1,17.73,West,265,3.0,4.0,23,-99.99,,,-99.99,meteohub,2013-01-09 10:12:00,
2013-01-09 03:17:00,26.4,17.6,17.73,West,259,4.0,4.0,22,-99.99,,,-99.99,meteohub,2013-01-09 10:17:00,
2013-01-09 03:22:00,26.4,17.8,17.73,West,267,3.0,4.0,22,-99.99,,,-99.99,meteohub,2013-01-09 10:22:00,
2013-01-09 03:27:00,26.4,17.6,17.73,West,275,2.0,5.0,22,-99.99,,,-99.99,meteohub,2013-01-09 10:27:00,
2013-01-09 03:32:00,26.4,17.4,17.73,West,259,3.0,5.0,22,-99.99,,,-99.99,meteohub,2013-01-09 10:32:00,
2013-01-09 03:37:00,26.4,17.2,17.73,West,262,3.0,4.0,22,-99.99,,,-99.99,meteohub,2013-01-09 10:37:00,
2013-01-09 03:42:00,26.4,17.2,17.73,West,262,3.0,4.0,22,-99.99,,,-99.99,meteohub,2013-01-09 10:42:00,
2013-01-09 03:47:00,26.4,18.1,17.73,West,262,0.0,4.0,23,-99.99,,,-99.99,meteohub,2013-01-09 10:47:00,
2013-01-09 03:52:00,26.4,17.4,17.73,West,262,0.0,4.0,22,-99.99,,,-99.99,meteohub,2013-01-09 10:52:00,
2013-01-09 03:57:00,26.4,17.8,17.73,West,262,0.0,4.0,22,-99.99,,,-99.99,meteohub,2013-01-09 10:57:00,
2013-01-09 04:02:00,26.4,17.6,17.73,West,262,0.0,3.0,22,-99.99,,,-99.99,meteohub,2013-01-09 11:02:00,
2013-01-09 04:07:00,26.4,17.4,17.73,West,262,0.0,3.0,22,-99.99,,,-99.99,meteohub,2013-01-09 11:07:00,
2013-01-09 04:12:00,26.4,17.2,17.73,West,262,0.0,2.0,22,-99.99,,,-99.99,meteohub,2013-01-09 11:12:00,
2013-01-09 04:17:00,26.4,17.2,17.73,South,169,0.0,2.0,22,-99.99,,,-99.99,meteohub,2013-01-09 11:17:00,
2013-01-09 04:22:00,26.2,18.1,17.73,South,169,0.0,0.0,23,-99.99,,,-99.99,meteohub,2013-01-09 11:22:00,
2013-01-09 04:27:00,26.2,17.2,17.73,South,169,0.0,0.0,22,-99.99,,,-99.99,meteohub,2013-01-09 11:27:00,
2013-01-09 04:32:00,26.2,17.8,17.73,South,169,0.0,0.0,22,-99.99,,,-99.99,meteohub,2013-01-09 11:32:00,
2013-01-09 04:37:00,26.2,17.8,17.73,SSW,192,0.0,0.0,22,-99.99,,,-99.99,meteohub,2013-01-09 11:37:00,
2013-01-09 04:42:00,26.2,17.6,17.73,SSW,192,0.0,0.0,22,-99.99,,,-99.99,meteohub,2013-01-09 11:42:00,
2013-01-09 04:47:00,26.2,17.4,17.73,SSW,192,0.0,0.0,22,-99.99,,,-99.99,meteohub,2013-01-09 11:47:00,
2013-01-09 04:52:00,26.2,17.2,17.73,SSW,192,0.0,0.0,22,-99.99,,,-99.99,meteohub,2013-01-09 11:52:00,
2013-01-09 04:57:00,26.2,17.2,17.73,SSW,192,0.0,0.0,22,-99.99,,,-99.99,meteohub,2013-01-09 11:57:00,
2013-01-09 05:02:00,26.2,18.1,17.73,SSW,192,0.0,0.0,23,-99.99,,,-99.99,meteohub,2013-01-09 12:02:00,
2013-01-09 05:07:00,26.1,17.6,17.73,SSW,192,0.0,0.0,22,-99.99,,,-99.99,meteohub,2013-01-09 12:07:00,
2013-01-09 05:12:00,26.1,17.8,17.73,SSW,192,0.0,0.0,22,-99.99,,,-99.99,meteohub,2013-01-09 12:12:00,
2013-01-09 05:17:00,26.1,17.6,17.73,SSW,192,0.0,0.0,22,-99.99,,,-99.99,meteohub,2013-01-09 12:17:00,
2013-01-09 05:22:00,26.2,17.4,17.73,SSW,192,0.0,0.0,22,-99.99,,,-99.99,meteohub,2013-01-09 12:22:00,
2013-01-09 05:27:00,26.2,17.2,17.73,SSW,192,0.0,0.0,22,-99.99,,,-99.99,meteohub,2013-01-09 12:27:00,
2013-01-09 05:32:00,26.2,17.2,17.73,SSW,192,0.0,0.0,22,-99.99,,,-99.99,meteohub,2013-01-09 12:32:00,
2013-01-09 05:37:00,26.2,17.2,17.73,SSW,192,0.0,0.0,22,-99.99,,,-99.99,meteohub,2013-01-09 12:37:00,
2013-01-09 05:42:00,26.2,17.2,17.73,West,265,0.0,0.0,22,-99.99,,,-99.99,meteohub,2013-01-09 12:42:00,
2013-01-09 05:47:00,26.2,17.8,17.73,WSW,247,0.0,0.0,22,-99.99,,,-99.99,meteohub,2013-01-09 12:47:00,
2013-01-09 05:52:00,26.2,17.6,17.73,West,281,2.0,0.0,22,-99.99,,,-99.99,meteohub,2013-01-09 12:52:00,
2013-01-09 05:57:00,26.4,17.6,17.73,WNW,289,0.0,0.0,22,-99.99,,,-99.99,meteohub,2013-01-09 12:57:00,
2013-01-09 06:02:00,26.6,17.4,17.73,West,277,2.0,3.0,22,-99.99,,,-99.99,meteohub,2013-01-09 13:02:00,
2013-01-09 06:07:00,26.6,17.2,17.73,West,277,0.0,3.0,22,-99.99,,,-99.99,meteohub,2013-01-09 13:07:00,
2013-01-09 06:12:00,26.6,17.2,17.73,WSW,245,0.0,4.0,22,-99.99,,,-99.99,meteohub,2013-01-09 13:12:00,
2013-01-09 06:17:00,26.4,18.1,17.73,WSW,245,0.0,4.0,23,-99.99,,,-99.99,meteohub,2013-01-09 13:17:00,
2013-01-09 06:22:00,26.4,17.8,17.73,WSW,245,0.0,4.0,22,-99.99,,,-99.99,meteohub,2013-01-09 13:22:00,
2013-01-09 06:28:00,26.4,17.8,17.73,WSW,245,0.0,4.0,22,-99.99,,,-99.99,meteohub,2013-01-09 13:28:00,
2013-01-09 06:33:00,26.6,17.6,17.73,WSW,245,0.0,4.0,22,-99.99,,,-99.99,meteohub,2013-01-09 13:33:00,
2013-01-09 06:38:00,26.6,17.4,17.73,WSW,245,0.0,3.0,22,-99.99,,,-99.99,meteohub,2013-01-09 13:38:00,
2013-01-09 06:43:00,26.6,17.2,17.73,WSW,245,0.0,0.0,22,-99.99,,,-99.99,meteohub,2013-01-09 13:43:00,
2013-01-09 06:49:00,26.6,17.2,17.73,WSW,245,0.0,0.0,22,-99.99,,,-99.99,meteohub,2013-01-09 13:49:00,
2013-01-09 06:54:00,26.6,18.1,17.73,WSW,245,0.0,0.0,23,-99.99,,,-99.99,meteohub,2013-01-09 13:54:00,
2013-01-09 06:59:00,26.6,17.4,17.73,WSW,245,0.0,0.0,22,-99.99,,,-99.99,meteohub,2013-01-09 13:59:00,
2013-01-09 07:04:00,26.6,17.8,17.73,WSW,245,0.0,0.0,22,-99.99,,,-99.99,meteohub,2013-01-09 14:04:00,
2013-01-09 07:10:00,26.4,17.6,17.73,WSW,245,0.0,0.0,22,-99.99,,,-99.99,meteohub,2013-01-09 14:10:00,
2013-01-09 07:15:00,26.4,17.4,17.73,WSW,245,0.0,0.0,22,-99.99,,,-99.99,meteohub,2013-01-09 14:15:00,
2013-01-09 07:20:00,26.6,17.2,17.73,WSW,238,0.0,2.0,22,-99.99,,,-99.99,meteohub,2013-01-09 14:20:00,
2013-01-09 07:25:00,26.8,17.2,17.73,West,281,0.0,2.0,22,-99.99,,,-99.99,meteohub,2013-01-09 14:25:00,
2013-01-09 07:31:00,27.0,17.2,17.73,SW,225,0.0,0.0,22,-99.99,,,-99.99,meteohub,2013-01-09 14:31:00,
2013-01-09 07:36:00,27.0,17.2,17.73,SW,220,0.0,4.0,22,-99.99,,,-99.99,meteohub,2013-01-09 14:36:00,
2013-01-09 07:41:00,27.0,17.8,17.73,SW,220,0.0,4.0,22,-99.99,,,-99.99,meteohub,2013-01-09 14:41:00,
2013-01-09 07:46:00,27.0,17.8,17.73,SW,220,0.0,4.0,22,-99.99,,,-99.99,meteohub,2013-01-09 14:46:00,
2013-01-09 07:51:00,27.0,17.6,17.73,SW,220,0.0,0.0,22,-99.99,,,-99.99,meteohub,2013-01-09 14:51:00,
2013-01-09 07:56:00,27.0,17.4,17.73,SW,220,0.0,0.0,22,-99.99,,,-99.99,meteohub,2013-01-09 14:56:00,
2013-01-09 08:02:00,26.8,17.2,17.73,SW,220,0.0,0.0,22,-99.99,,,-99.99,meteohub,2013-01-09 15:02:00,
2013-01-09 08:07:00,26.8,17.2,17.73,West,263,0.0,0.0,22,-99.99,,,-99.99,meteohub,2013-01-09 15:07:00,
2013-01-09 08:12:00,26.8,18.1,17.73,West,261,0.0,0.0,23,-99.99,,,-99.99,meteohub,2013-01-09 15:12:00,
2013-01-09 08:17:00,27.1,17.6,17.73,West,261,0.0,0.0,22,-99.99,,,-99.99,meteohub,2013-01-09 15:17:00,
2013-01-09 08:22:00,27.3,18.0,17.73,West,261,0.0,0.0,22,-99.99,,,-99.99,meteohub,2013-01-09 15:22:00,
2013-01-09 08:27:00,27.5,17.8,17.73,West,261,0.0,0.0,22,-99.99,,,-99.99,meteohub,2013-01-09 15:27:00,
2013-01-09 08:33:00,27.1,17.6,17.73,SSW,204,0.0,0.0,22,-99.99,,,-99.99,meteohub,2013-01-09 15:33:00,
2013-01-09 08:38:00,27.1,17.4,17.73,SSW,204,0.0,0.0,22,-99.99,,,-99.99,meteohub,2013-01-09 15:38:00,
2013-01-09 08:43:00,27.1,17.2,17.73,SSW,204,0.0,0.0,22,-99.99,,,-99.99,meteohub,2013-01-09 15:43:00,
2013-01-09 08:48:00,27.5,17.2,17.73,SSW,204,0.0,0.0,22,-99.99,,,-99.99,meteohub,2013-01-09 15:48:00,
2013-01-09 08:53:00,27.5,17.2,17.73,SSW,204,0.0,0.0,22,-99.99,,,-99.99,meteohub,2013-01-09 15:53:00,
2013-01-09 08:58:00,27.7,17.8,17.73,SSW,204,0.0,0.0,22,-99.99,,,-99.99,meteohub,2013-01-09 15:58:00,
2013-01-09 09:04:00,28.0,17.8,17.73,SSW,204,0.0,0.0,22,-99.99,,,-99.99,meteohub,2013-01-09 16:04:00,
2013-01-09 09:09:00,27.9,17.6,17.73,SSW,204,0.0,0.0,22,-99.99,,,-99.99,meteohub,2013-01-09 16:09:00,
2013-01-09 09:14:00,27.9,17.4,17.73,SSW,204,0.0,0.0,22,-99.99,,,-99.99,meteohub,2013-01-09 16:14:00,
2013-01-09 09:19:00,28.2,17.4,17.73,SSW,204,0.0,0.0,22,-99.99,,,-99.99,meteohub,2013-01-09 16:19:00,
2013-01-09 09:24:00,28.6,17.2,17.73,SSW,204,0.0,0.0,22,-99.99,,,-99.99,meteohub,2013-01-09 16:24:00,
2013-01-09 09:29:00,29.1,17.2,17.73,SSW,204,0.0,0.0,22,-99.99,,,-99.99,meteohub,2013-01-09 16:29:00,
2013-01-09 09:34:00,29.3,17.2,17.73,SSW,204,0.0,0.0,22,-99.99,,,-99.99,meteohub,2013-01-09 16:34:00,
2013-01-09 09:39:00,29.7,17.8,17.73,West,267,0.0,0.0,22,-99.99,,,-99.99,meteohub,2013-01-09 16:39:00,
2013-01-09 09:45:00,30.0,17.8,17.73,West,267,0.0,0.0,22,-99.99,,,-99.99,meteohub,2013-01-09 16:45:00,
2013-01-09 09:50:00,30.2,17.6,17.73,West,267,0.0,0.0,22,-99.99,,,-99.99,meteohub,2013-01-09 16:50:00,
2013-01-09 09:55:00,30.2,17.4,17.73,West,267,0.0,0.0,22,-99.99,,,-99.99,meteohub,2013-01-09 16:55:00,
2013-01-09 10:00:00,30.2,17.2,17.73,SSE,161,0.0,0.0,22,-99.99,,,-99.99,meteohub,2013-01-09 17:00:00,
2013-01-09 10:05:00,30.4,17.2,17.73,SSE,168,3.0,0.0,22,-99.99,,,-99.99,meteohub,2013-01-09 17:05:00,
2013-01-09 10:10:00,30.6,17.2,17.73,SSE,167,3.0,4.0,22,-99.99,,,-99.99,meteohub,2013-01-09 17:10:00,
2013-01-09 10:16:00,30.7,17.2,17.73,SSE,157,2.0,4.0,22,-99.99,,,-99.99,meteohub,2013-01-09 17:16:00,
2013-01-09 10:21:00,30.9,17.8,17.73,SSE,151,3.0,3.0,22,-99.99,,,-99.99,meteohub,2013-01-09 17:21:00,
2013-01-09 10:26:00,31.1,18.0,17.73,SSE,152,3.0,3.0,22,-99.99,,,-99.99,meteohub,2013-01-09 17:26:00,
2013-01-09 10:31:00,31.1,17.8,17.73,South,173,3.0,4.0,22,-99.99,,,-99.99,meteohub,2013-01-09 17:31:00,
2013-01-09 10:36:00,31.3,17.6,17.73,SSE,167,3.0,4.0,22,-99.99,,,-99.99,meteohub,2013-01-09 17:36:00,
2013-01-09 10:41:00,32.0,17.4,17.73,SSW,208,2.0,4.0,22,-99.99,,,-99.99,meteohub,2013-01-09 17:41:00,
2013-01-09 10:46:00,32.2,17.2,17.73,SSW,208,2.0,4.0,22,-99.99,,,-99.99,meteohub,2013-01-09 17:46:00,
2013-01-09 10:52:00,32.9,17.2,17.73,SSW,208,0.0,3.0,22,-99.99,,,-99.99,meteohub,2013-01-09 17:52:00,
2013-01-09 10:57:00,33.4,17.2,17.73,SE,139,3.0,3.0,22,-99.99,,,-99.99,meteohub,2013-01-09 17:57:00,
2013-01-09 11:02:00,33.8,17.2,17.73,SE,145,0.0,3.0,22,-99.99,,,-99.99,meteohub,2013-01-09 18:02:00,
2013-01-09 11:07:00,34.5,18.0,17.73,SE,145,0.0,3.0,22,-99.99,,,-99.99,meteohub,2013-01-09 18:07:00,
2013-01-09 11:12:00,35.1,18.0,17.73,SE,145,0.0,3.0,22,-99.99,,,-99.99,meteohub,2013-01-09 18:12:00,
2013-01-09 11:17:00,34.9,18.0,17.73,SE,145,0.0,0.0,22,-99.99,,,-99.99,meteohub,2013-01-09 18:17:00,
2013-01-09 11:22:00,34.9,17.8,17.73,SE,145,0.0,0.0,22,-99.99,,,-99.99,meteohub,2013-01-09 18:22:00,
2013-01-09 11:27:00,35.1,17.6,17.73,South,177,0.0,0.0,22,-99.99,,,-99.99,meteohub,2013-01-09 18:27:00,
2013-01-09 11:32:00,34.5,17.6,17.73,South,177,3.0,0.0,22,-99.99,,,-99.99,meteohub,2013-01-09 18:32:00,
2013-01-09 11:37:00,34.0,17.4,17.73,SSW,206,5.0,5.0,22,-99.99,,,-99.99,meteohub,2013-01-09 18:37:00,
2013-01-09 11:41:00,34.0,17.4,17.73,SSW,206,3.0,5.0,22,-99.99,,,-99.99,meteohub,2013-01-09 18:41:00,
2013-01-09 11:42:00,34.0,17.4,17.73,SSW,206,3.0,5.0,22,-99.99,,,-99.99,meteohub,2013-01-09 18:42:00,
2013-01-09 11:44:00,33.8,17.4,17.73,SSW,199,5.0,5.0,22,-99.99,,,-99.99,meteohub,2013-01-09 18:44:00,
2013-01-09 11:45:00,33.8,17.4,17.73,SSW,200,3.0,5.0,22,-99.99,,,-99.99,meteohub,2013-01-09 18:45:00,
2013-01-09 11:46:00,33.8,17.2,17.73,SSW,201,3.0,5.0,22,-99.99,,,-99.99,meteohub,2013-01-09 18:46:00,
2013-01-09 11:47:00,33.8,17.2,17.73,SSW,201,2.0,5.0,22,-99.99,,,-99.99,meteohub,2013-01-09 18:47:00,
2013-01-09 11:48:00,34.0,17.2,17.73,SSW,201,3.0,5.0,22,-99.99,,,-99.99,meteohub,2013-01-09 18:48:00,
2013-01-09 11:49:00,33.8,17.2,17.73,SSW,201,4.0,5.0,22,-99.99,,,-99.99,meteohub,2013-01-09 18:49:00,
2013-01-09 11:50:00,33.8,17.2,17.73,SSW,201,3.0,5.0,22,-99.99,,,-99.99,meteohub,2013-01-09 18:50:00,
2013-01-09 11:55:00,33.8,17.2,17.73,SSW,201,3.0,5.0,22,-99.99,,,-99.99,meteohub,2013-01-09 18:55:00,
2013-01-09 12:00:00,33.6,17.2,17.73,SSW,202,4.0,5.0,22,-99.99,,,-99.99,meteohub,2013-01-09 19:00:00,
2013-01-09 12:05:00,34.2,17.8,17.73,SSW,211,4.0,5.0,22,-99.99,,,-99.99,meteohub,2013-01-09 19:05:00,
2013-01-09 12:11:00,33.8,18.0,17.73,SSW,211,4.0,5.0,22,-99.99,,,-99.99,meteohub,2013-01-09 19:11:00,
2013-01-09 12:16:00,33.8,18.0,17.73,SSW,211,3.0,5.0,22,-99.99,,,-99.99,meteohub,2013-01-09 19:16:00,
2013-01-09 12:21:00,33.8,18.0,17.73,SSW,211,4.0,6.0,22,-99.99,,,-99.99,meteohub,2013-01-09 19:21:00,
2013-01-09 12:26:00,33.8,17.8,17.73,South,187,6.0,6.0,22,-99.99,,,-99.99,meteohub,2013-01-09 19:26:00,
2013-01-09 12:32:00,34.2,17.6,17.73,South,177,3.0,6.0,22,-99.99,,,-99.99,meteohub,2013-01-09 19:32:00,
2013-01-09 12:37:00,34.5,17.6,17.73,South,177,3.0,6.0,22,-99.99,,,-99.99,meteohub,2013-01-09 19:37:00,
2013-01-09 12:42:00,35.1,17.4,17.73,South,174,3.0,6.0,22,-99.99,,,-99.99,meteohub,2013-01-09 19:42:00,
2013-01-09 12:47:00,35.8,17.4,17.73,South,174,0.0,4.0,22,-99.99,,,-99.99,meteohub,2013-01-09 19:47:00,
2013-01-09 12:52:00,36.3,17.4,17.73,SSW,210,3.0,4.0,22,-99.99,,,-99.99,meteohub,2013-01-09 19:52:00,
2013-01-09 12:57:00,37.9,17.4,17.73,South,172,4.0,4.0,22,-99.99,,,-99.99,meteohub,2013-01-09 19:57:00,
2013-01-09 13:02:00,36.9,17.4,17.73,South,178,4.0,4.0,22,-99.99,,,-99.99,meteohub,2013-01-09 20:02:00,
2013-01-09 13:07:00,35.4,17.4,17.73,South,180,5.0,6.0,22,-99.99,,,-99.99,meteohub,2013-01-09 20:07:00,
2013-01-09 13:13:00,35.4,17.4,17.73,South,174,4.0,6.0,22,-99.99,,,-99.99,meteohub,2013-01-09 20:13:00,
2013-01-09 13:18:00,35.1,17.4,17.73,South,178,4.0,6.0,22,-99.99,,,-99.99,meteohub,2013-01-09 20:18:00,
2013-01-09 13:23:00,35.4,17.2,17.73,South,177,3.0,5.0,22,-99.99,,,-99.99,meteohub,2013-01-09 20:23:00,
2013-01-09 13:28:00,35.6,17.2,17.73,South,178,3.0,5.0,22,-99.99,,,-99.99,meteohub,2013-01-09 20:28:00,
2013-01-09 13:33:00,35.6,17.2,17.73,South,178,3.0,5.0,22,-99.99,,,-99.99,meteohub,2013-01-09 20:33:00,
2013-01-09 13:38:00,35.2,17.4,17.73,South,183,3.0,4.0,22,-99.99,,,-99.99,meteohub,2013-01-09 20:38:00,
2013-01-09 13:44:00,34.9,18.0,17.73,SSW,199,3.0,4.0,22,-99.99,,,-99.99,meteohub,2013-01-09 20:44:00,
2013-01-09 13:49:00,34.3,18.0,17.73,SSE,164,5.0,5.0,22,-99.99,,,-99.99,meteohub,2013-01-09 20:49:00,
2013-01-09 13:54:00,34.5,18.0,17.73,South,180,4.0,6.0,22,-99.99,,,-99.99,meteohub,2013-01-09 20:54:00,
2013-01-09 13:59:00,34.7,17.8,17.73,South,187,3.0,6.0,22,-99.99,,,-99.99,meteohub,2013-01-09 20:59:00,
2013-01-09 14:04:00,36.1,17.6,17.73,South,177,2.0,6.0,22,-99.99,,,-99.99,meteohub,2013-01-09 21:04:00,
2013-01-09 14:09:00,38.1,17.6,17.73,South,177,0.0,5.0,22,-99.99,,,-99.99,meteohub,2013-01-09 21:09:00,
2013-01-09 14:14:00,38.7,17.6,17.73,South,185,3.0,5.0,22,-99.99,,,-99.99,meteohub,2013-01-09 21:14:00,
2013-01-09 14:20:00,39.0,17.6,17.73,South,185,0.0,5.0,22,-99.99,,,-99.99,meteohub,2013-01-09 21:20:00,
2013-01-09 14:25:00,38.1,17.6,17.73,South,175,5.0,5.0,22,-99.99,,,-99.99,meteohub,2013-01-09 21:25:00,
2013-01-09 14:30:00,37.0,17.4,17.73,South,173,5.0,5.0,22,-99.99,,,-99.99,meteohub,2013-01-09 21:30:00,
2013-01-09 14:35:00,36.3,17.4,17.73,South,182,4.0,7.0,22,-99.99,,,-99.99,meteohub,2013-01-09 21:35:00,
2013-01-09 14:40:00,36.1,17.4,17.73,South,174,4.0,7.0,22,-99.99,,,-99.99,meteohub,2013-01-09 21:40:00,
2013-01-09 14:45:00,36.1,17.4,17.73,South,175,4.0,6.0,22,-99.99,,,-99.99,meteohub,2013-01-09 21:45:00,
2013-01-09 14:51:00,35.6,17.2,17.73,South,187,3.0,6.0,22,-99.99,,,-99.99,meteohub,2013-01-09 21:51:00,
2013-01-09 14:56:00,35.4,17.2,17.73,South,184,4.0,6.0,22,-99.99,,,-99.99,meteohub,2013-01-09 21:56:00,
2013-01-09 15:01:00,35.6,18.0,17.73,South,178,3.0,5.0,22,-99.99,,,-99.99,meteohub,2013-01-09 22:01:00,
2013-01-09 15:06:00,35.1,18.1,17.73,South,179,3.0,5.0,22,-99.99,,,-99.99,meteohub,2013-01-09 22:06:00,
2013-01-09 15:11:00,33.6,18.1,17.73,SSW,205,0.0,5.0,22,-99.99,,,-99.99,meteohub,2013-01-09 22:11:00,
2013-01-09 15:16:00,33.4,18.0,17.73,SW,231,0.0,4.0,22,-99.99,,,-99.99,meteohub,2013-01-09 22:16:00,
2013-01-09 15:21:00,34.2,17.8,17.73,WSW,255,0.0,4.0,22,-99.99,,,-99.99,meteohub,2013-01-09 22:21:00,
2013-01-09 15:27:00,35.4,17.6,17.73,West,278,0.0,0.0,22,-99.99,,,-99.99,meteohub,2013-01-09 22:27:00,
2013-01-09 15:32:00,36.1,17.6,17.73,WSW,240,0.0,0.0,22,-99.99,,,-99.99,meteohub,2013-01-09 22:32:00,
2013-01-09 15:37:00,34.3,17.4,17.73,SW,229,0.0,0.0,22,-99.99,,,-99.99,meteohub,2013-01-09 22:37:00,
2013-01-09 15:42:00,32.5,17.4,17.73,SW,229,0.0,0.0,22,-99.99,,,-99.99,meteohub,2013-01-09 22:42:00,
2013-01-09 15:47:00,32.5,17.2,17.73,SW,234,0.0,0.0,22,-99.99,,,-99.99,meteohub,2013-01-09 22:47:00,
2013-01-09 15:52:00,31.5,17.2,17.73,SW,234,0.0,0.0,22,-99.99,,,-99.99,meteohub,2013-01-09 22:52:00,
2013-01-09 15:58:00,28.9,17.2,17.73,SSW,208,0.0,0.0,22,-99.99,,,-99.99,meteohub,2013-01-09 22:58:00,
2013-01-09 16:03:00,28.2,18.0,17.73,SW,214,0.0,0.0,22,-99.99,,,-99.99,meteohub,2013-01-09 23:03:00,
2013-01-09 16:08:00,28.8,18.1,17.73,SW,214,0.0,0.0,22,-99.99,,,-99.99,meteohub,2013-01-09 23:08:00,
2013-01-09 16:13:00,29.5,18.0,17.73,WNW,288,0.0,0.0,22,-99.99,,,-99.99,meteohub,2013-01-09 23:13:00,
2013-01-09 16:18:00,29.8,17.8,17.73,WSW,237,0.0,0.0,22,-99.99,,,-99.99,meteohub,2013-01-09 23:18:00,
2013-01-09 16:23:00,29.5,17.6,17.73,WSW,247,0.0,0.0,22,-99.99,,,-99.99,meteohub,2013-01-09 23:23:00,
2013-01-09 16:29:00,29.1,17.6,17.73,WSW,251,0.0,0.0,22,-99.99,,,-99.99,meteohub,2013-01-09 23:29:00,
2013-01-09 16:34:00,30.2,17.4,17.73,West,266,0.0,0.0,22,-99.99,,,-99.99,meteohub,2013-01-09 23:34:00,
2013-01-09 16:39:00,30.0,17.2,17.73,WNW,286,0.0,0.0,22,-99.99,,,-99.99,meteohub,2013-01-09 23:39:00,
2013-01-09 16:44:00,29.7,17.2,17.73,WNW,286,0.0,0.0,22,-99.99,,,-99.99,meteohub,2013-01-09 23:44:00,
2013-01-09 16:49:00,29.7,17.2,17.73,SSW,211,0.0,0.0,22,-99.99,,,-99.99,meteohub,2013-01-09 23:49:00,
2013-01-09 16:54:00,29.5,17.8,17.73,SSW,211,0.0,0.0,22,-99.99,,,-99.99,meteohub,2013-01-09 23:54:00,
2013-01-09 17:00:00,28.9,18.0,17.73,SSW,211,0.0,0.0,22,-99.99,,,-99.99,meteohub,2013-01-10 00:00:00,
2013-01-09 17:05:00,29.5,17.8,17.73,WNW,287,0.0,0.0,22,-99.99,,,-99.99,meteohub,2013-01-10 00:05:00,
2013-01-09 17:10:00,28.8,17.8,17.73,WNW,287,0.0,0.0,22,-99.99,,,-99.99,meteohub,2013-01-10 00:10:00,
2013-01-09 17:15:00,28.6,17.6,17.73,SW,220,0.0,0.0,22,-99.99,,,-99.99,meteohub,2013-01-10 00:15:00,
2013-01-09 17:20:00,28.2,17.4,17.73,NNW,332,0.0,0.0,22,-99.99,,,-99.99,meteohub,2013-01-10 00:20:00,
2013-01-09 17:25:00,28.2,17.2,17.73,NW,313,0.0,0.0,22,-99.99,,,-99.99,meteohub,2013-01-10 00:25:00,
2013-01-09 17:31:00,28.4,17.2,17.73,NE,35,0.0,0.0,22,-99.99,,,-99.99,meteohub,2013-01-10 00:31:00,
2013-01-09 17:36:00,28.0,17.2,17.73,NE,34,0.0,0.0,22,-99.99,,,-99.99,meteohub,2013-01-10 00:36:00,
2013-01-09 17:41:00,28.2,17.6,17.73,NE,35,0.0,0.0,22,-99.99,,,-99.99,meteohub,2013-01-10 00:41:00,
2013-01-09 17:46:00,28.4,17.8,17.73,NE,35,0.0,0.0,22,-99.99,,,-99.99,meteohub,2013-01-10 00:46:00,
2013-01-09 17:51:00,28.4,17.6,17.73,NE,35,0.0,0.0,22,-99.99,,,-99.99,meteohub,2013-01-10 00:51:00,
2013-01-09 17:56:00,28.6,17.6,17.73,SSE,160,0.0,0.0,22,-99.99,,,-99.99,meteohub,2013-01-10 00:56:00,
2013-01-09 18:01:00,28.0,17.4,17.73,SSE,159,0.0,0.0,22,-99.99,,,-99.99,meteohub,2013-01-10 01:01:00,
2013-01-09 18:07:00,27.9,17.4,17.73,SSE,159,0.0,0.0,22,-99.99,,,-99.99,meteohub,2013-01-10 01:07:00,
2013-01-09 18:12:00,27.5,17.2,17.73,SSE,159,0.0,0.0,22,-99.99,,,-99.99,meteohub,2013-01-10 01:12:00,
2013-01-09 18:17:00,27.3,17.2,17.73,SSE,159,0.0,0.0,22,-99.99,,,-99.99,meteohub,2013-01-10 01:17:00,
2013-01-09 18:22:00,27.3,17.2,17.73,SSE,160,0.0,0.0,22,-99.99,,,-99.99,meteohub,2013-01-10 01:22:00,
2013-01-09 18:27:00,27.0,17.8,17.73,SSE,160,0.0,0.0,22,-99.99,,,-99.99,meteohub,2013-01-10 01:27:00,
2013-01-09 18:33:00,27.0,17.8,17.73,SSE,160,0.0,0.0,22,-99.99,,,-99.99,meteohub,2013-01-10 01:33:00,
2013-01-09 18:38:00,26.8,17.6,17.73,SSE,160,0.0,0.0,22,-99.99,,,-99.99,meteohub,2013-01-10 01:38:00,
2013-01-09 18:43:00,27.0,17.6,17.73,SSE,160,0.0,0.0,22,-99.99,,,-99.99,meteohub,2013-01-10 01:43:00,
2013-01-09 18:48:00,26.8,17.4,17.73,SSE,160,0.0,0.0,22,-99.99,,,-99.99,meteohub,2013-01-10 01:48:00,
2013-01-09 18:53:00,26.4,17.2,17.73,SSE,160,0.0,0.0,22,-99.99,,,-99.99,meteohub,2013-01-10 01:53:00,
2013-01-09 18:58:00,26.8,17.2,17.73,SSE,160,0.0,0.0,22,-99.99,,,-99.99,meteohub,2013-01-10 01:58:00,
2013-01-09 19:04:00,26.6,17.2,17.73,West,261,0.0,0.0,22,-99.99,,,-99.99,meteohub,2013-01-10 02:04:00,
2013-01-09 19:09:00,26.6,17.4,17.73,West,263,0.0,0.0,22,-99.99,,,-99.99,meteohub,2013-01-10 02:09:00,
2013-01-09 19:14:00,26.2,18.0,17.73,West,263,0.0,0.0,22,-99.99,,,-99.99,meteohub,2013-01-10 02:14:00,
2013-01-09 19:19:00,26.1,17.8,17.73,West,263,0.0,0.0,22,-99.99,,,-99.99,meteohub,2013-01-10 02:19:00,
2013-01-09 19:24:00,25.9,17.6,17.73,West,263,0.0,0.0,22,-99.99,,,-99.99,meteohub,2013-01-10 02:24:00,
2013-01-09 19:29:00,25.9,17.4,17.73,West,263,0.0,0.0,22,-99.99,,,-99.99,meteohub,2013-01-10 02:29:00,
2013-01-09 19:34:00,25.5,17.2,17.73,WNW,296,0.0,0.0,22,-99.99,,,-99.99,meteohub,2013-01-10 02:34:00,
2013-01-09 19:40:00,24.4,17.2,17.73,South,173,0.0,0.0,22,-99.99,,,-99.99,meteohub,2013-01-10 02:40:00,
2013-01-09 19:45:00,25.0,17.2,17.73,South,173,0.0,0.0,22,-99.99,,,-99.99,meteohub,2013-01-10 02:45:00,
2013-01-09 19:50:00,25.2,17.2,17.73,WNW,298,0.0,0.0,22,-99.99,,,-99.99,meteohub,2013-01-10 02:50:00,
2013-01-09 19:55:00,24.4,17.8,17.73,WSW,241,0.0,0.0,22,-99.99,,,-99.99,meteohub,2013-01-10 02:55:00,
2013-01-09 20:00:00,24.6,17.8,17.73,West,278,0.0,0.0,22,-99.99,,,-99.99,meteohub,2013-01-10 03:00:00,
2013-01-09 20:05:00,24.6,17.6,17.73,West,277,0.0,0.0,22,-99.99,,,-99.99,meteohub,2013-01-10 03:05:00,
2013-01-09 20:11:00,24.3,17.6,17.73,West,277,0.0,0.0,22,-99.99,,,-99.99,meteohub,2013-01-10 03:11:00,
2013-01-09 20:16:00,21.7,17.4,17.73,WSW,240,0.0,0.0,22,-99.99,,,-99.99,meteohub,2013-01-10 03:16:00,
2013-01-09 20:21:00,21.2,17.2,17.73,SSW,196,0.0,0.0,22,-99.99,,,-99.99,meteohub,2013-01-10 03:21:00,
2013-01-09 20:26:00,22.5,17.2,17.73,SSW,196,0.0,0.0,22,-99.99,,,-99.99,meteohub,2013-01-10 03:26:00,
2013-01-09 20:31:00,21.2,17.2,17.73,ENE,64,0.0,0.0,22,-99.99,,,-99.99,meteohub,2013-01-10 03:31:00,
2013-01-09 20:36:00,21.4,17.8,17.73,WNW,291,0.0,0.0,22,-99.99,,,-99.99,meteohub,2013-01-10 03:36:00,
2013-01-09 20:41:00,22.3,17.8,17.73,WNW,291,0.0,0.0,22,-99.99,,,-99.99,meteohub,2013-01-10 03:41:00,
2013-01-09 20:47:00,22.8,17.6,17.73,WNW,291,0.0,0.0,22,-99.99,,,-99.99,meteohub,2013-01-10 03:47:00,
2013-01-09 20:52:00,23.5,17.4,17.73,West,279,0.0,0.0,22,-99.99,,,-99.99,meteohub,2013-01-10 03:52:00,
2013-01-09 20:57:00,23.4,17.2,17.73,WNW,284,0.0,0.0,22,-99.99,,,-99.99,meteohub,2013-01-10 03:57:00,
2013-01-09 21:02:00,23.9,17.2,17.73,West,271,0.0,0.0,22,-99.99,,,-99.99,meteohub,2013-01-10 04:02:00,
2013-01-09 21:07:00,24.4,17.2,17.73,WNW,282,0.0,0.0,22,-99.99,,,-99.99,meteohub,2013-01-10 04:07:00,
2013-01-09 21:12:00,23.5,17.2,17.73,WSW,247,0.0,0.0,22,-99.99,,,-99.99,meteohub,2013-01-10 04:12:00,
2013-01-09 21:18:00,23.7,17.8,17.73,SSW,212,0.0,0.0,22,-99.99,,,-99.99,meteohub,2013-01-10 04:18:00,
2013-01-09 21:23:00,23.2,17.8,17.73,SSE,147,0.0,0.0,22,-99.99,,,-99.99,meteohub,2013-01-10 04:23:00,
2013-01-09 21:28:00,21.9,17.6,17.73,SSE,166,0.0,0.0,22,-99.99,,,-99.99,meteohub,2013-01-10 04:28:00,
2013-01-09 21:33:00,20.8,17.4,17.73,SSW,204,0.0,0.0,22,-99.99,,,-99.99,meteohub,2013-01-10 04:33:00,
2013-01-09 21:38:00,21.2,17.2,17.73,SW,216,0.0,0.0,22,-99.99,,,-99.99,meteohub,2013-01-10 04:38:00,
2013-01-09 21:43:00,21.6,17.2,17.73,SW,231,0.0,0.0,22,-99.99,,,-99.99,meteohub,2013-01-10 04:43:00,
2013-01-09 21:49:00,21.7,18.1,17.73,WSW,240,0.0,0.0,23,-99.99,,,-99.99,meteohub,2013-01-10 04:49:00,
2013-01-09 21:54:00,21.4,17.6,17.73,SE,137,0.0,0.0,22,-99.99,,,-99.99,meteohub,2013-01-10 04:54:00,
2013-01-09 21:59:00,21.2,17.8,17.73,SE,130,0.0,0.0,22,-99.99,,,-99.99,meteohub,2013-01-10 04:59:00,
2013-01-09 22:00:00,21.2,17.8,17.73,SSE,156,0.0,0.0,22,-99.99,,,-99.99,meteohub,2013-01-10 05:00:00,
2013-01-09 22:02:00,21.2,17.8,17.73,West,277,0.0,0.0,22,-99.99,,,-99.99,meteohub,2013-01-10 05:02:00,
2013-01-09 22:03:00,21.4,17.8,17.73,WNW,287,0.0,0.0,22,-99.99,,,-99.99,meteohub,2013-01-10 05:03:00,
2013-01-09 22:05:00,21.9,17.6,17.73,SSE,167,0.0,0.0,22,-99.99,,,-99.99,meteohub,2013-01-10 05:05:00,
2013-01-09 22:10:00,22.1,17.4,17.73,NNW,344,0.0,0.0,22,-99.99,,,-99.99,meteohub,2013-01-10 05:10:00,
2013-01-09 22:15:00,21.9,17.2,17.73,SE,139,0.0,0.0,22,-99.99,,,-99.99,meteohub,2013-01-10 05:15:00,
2013-01-09 22:21:00,21.9,17.2,17.73,WSW,248,0.0,0.0,22,-99.99,,,-99.99,meteohub,2013-01-10 05:21:00,
2013-01-09 22:26:00,21.9,18.1,17.73,WSW,257,0.0,0.0,23,-99.99,,,-99.99,meteohub,2013-01-10 05:26:00,
2013-01-09 22:31:00,22.1,17.4,17.73,West,259,0.0,0.0,22,-99.99,,,-99.99,meteohub,2013-01-10 05:31:00,
2013-01-09 22:36:00,22.5,17.8,17.73,WNW,300,0.0,0.0,22,-99.99,,,-99.99,meteohub,2013-01-10 05:36:00,
2013-01-09 22:41:00,22.5,17.6,17.73,NNW,345,0.0,0.0,22,-99.99,,,-99.99,meteohub,2013-01-10 05:41:00,
2013-01-09 22:46:00,21.9,17.4,17.73,NNW,345,0.0,0.0,22,-99.99,,,-99.99,meteohub,2013-01-10 05:46:00,
2013-01-09 22:52:00,21.9,17.2,17.73,NNW,345,0.0,0.0,22,-99.99,,,-99.99,meteohub,2013-01-10 05:52:00,
2013-01-09 22:57:00,21.9,17.2,17.73,NNW,345,0.0,0.0,22,-99.99,,,-99.99,meteohub,2013-01-10 05:57:00,
2013-01-09 23:02:00,22.6,17.2,17.73,NE,55,0.0,0.0,22,-99.99,,,-99.99,meteohub,2013-01-10 06:02:00,
2013-01-09 23:07:00,23.0,17.2,17.73,NE,50,0.0,0.0,22,-99.99,,,-99.99,meteohub,2013-01-10 06:07:00,
2013-01-09 23:12:00,23.5,17.6,17.73,ENE,61,0.0,0.0,22,-99.99,,,-99.99,meteohub,2013-01-10 06:12:00,
2013-01-09 23:17:00,23.5,17.8,17.73,ENE,61,0.0,0.0,22,-99.99,,,-99.99,meteohub,2013-01-10 06:17:00,
2013-01-09 23:22:00,23.5,17.6,17.73,WSW,252,0.0,0.0,22,-99.99,,,-99.99,meteohub,2013-01-10 06:22:00,
2013-01-09 23:27:00,23.2,17.4,17.73,WSW,252,0.0,0.0,22,-99.99,,,-99.99,meteohub,2013-01-10 06:27:00,
2013-01-09 23:32:00,22.3,17.2,17.73,SW,216,0.0,0.0,22,-99.99,,,-99.99,meteohub,2013-01-10 06:32:00,
2013-01-09 23:37:00,22.8,17.2,17.73,SW,223,0.0,0.0,22,-99.99,,,-99.99,meteohub,2013-01-10 06:37:00,
2013-01-09 23:42:00,22.8,18.1,17.73,SW,216,0.0,0.0,23,-99.99,,,-99.99,meteohub,2013-01-10 06:42:00,
2013-01-09 23:47:00,22.8,17.4,17.73,SSW,208,0.0,0.0,22,-99.99,,,-99.99,meteohub,2013-01-10 06:47:00,
2013-01-09 23:52:00,22.5,17.8,17.73,SSW,209,0.0,0.0,22,-99.99,,,-99.99,meteohub,2013-01-10 06:52:00,
2013-01-09 23:57:00,21.9,17.8,17.73,SSW,199,0.0,0.0,22,-99.99,,,-99.99,meteohub,2013-01-10 06:57:00,